Location: Burbank
(38.7788°N, 114.0429°W)
Time: 14:05:57
(UTC+00:00)

Injun/Solrad 3 - Pass Details

Date: 20 May 2026
Orbit: 867 x 989 km, 66.8° (Epoch: 8 June)

Event Time Altitude Azimuth Distance (km) Brightness Sun altitude
Rises 06:24:33 0° 336° (NNW) 3,687 12.2 -29.1°
Reaches altitude 10° 06:27:15 10° 343° (NNW) 2,745 11.3 -29.3°
Maximum altitude 06:33:25 46° 55° (NE) 1,306 8.7 -29.6°
Enters shadow 06:34:17 43° 78° (ENE) 1,350 8.6 -29.6°
Drops below altitude 10° 06:39:34 10° 128° (SE) 2,735 - -29.9°
Sets 06:42:14 0° 134° (SE) 3,672 - -30.0°
